Tracking 19832 objects as of 26-Aug-2019
HD Live streaming from Space Station
objects crossing your sky now

FENGYUN 1C DEB

Track FENGYUN 1C DEB now!
10-day predictions


NORAD ID: 29835
Int'l Code: 1999-025ED
Perigee: 637.7 km
Apogee: 883.4 km
Inclination: 99.0 °
Period: 99.9 minutes
Semi major axis: 7131 km
RCS: 0.043 m2 (small)
Launch date: May 10, 1999
Source: People's Republic of China (PRC)
Launch site: Taiyaun Space Center, China (TSC)

Note: This is SATELLITE DEBRIS
aabbcc
Your satellite tracking list
Your tracking list is empty




NASA's NSSDC Master Catalog

Two Line Element Set (TLE):
1 29835U 99025ED  19237.88146064 -.00000007  00000-0  13136-4 0  9997
2 29835  99.0407 196.1087 0172282   3.1411  53.2527 14.41535250663405
Source of the keplerian elements: AFSPC